VIV2061 MMQT-MMUN

Flight info

Callsign VIV2061
Flight time 2h 2m
Altitude 39000
Route QET2B QET UJ14 TAM UT23 PERGO UT17 VOMAR VOMAR1A
Aircraft A20N/M-SDE2E3FGHIRWXY/LB1

Departure

Time 2026-05-05 03:22
Airport Querétaro Intercontinental Airport (MMQT)

Arrival

Time 2026-05-05 05:25
Airport Cancún International Airport (MMUN)
Time Latitude Longitude Altitude Speed Heading
2026-05-05 02:05 20.62207 -100.18805 6289 ft 0 kts 11°
2026-05-05 03:03 20.62201 -100.18806 6287 ft 2 kts 11°
2026-05-05 03:03 20.62187 -100.18809 6287 ft 2 kts 11°
2026-05-05 03:04 20.62172 -100.18812 6287 ft 2 kts 11°
2026-05-05 03:04 20.62157 -100.18815 6287 ft 2 kts 11°
2026-05-05 03:04 20.62142 -100.18819 6287 ft 2 kts 27°
2026-05-05 03:04 20.62130 -100.18829 6287 ft 2 kts 50°
2026-05-05 03:05 20.62122 -100.18842 6287 ft 2 kts 73°
2026-05-05 03:05 20.62121 -100.18858 6287 ft 1 kts 95°
2026-05-05 03:05 20.62122 -100.18864 6287 ft 1 kts 104°
2026-05-05 03:05 20.62122 -100.18868 6287 ft 0 kts 102°
2026-05-05 03:09 20.62122 -100.18867 6287 ft 0 kts 102°
2026-05-05 03:10 20.62121 -100.18860 6287 ft 1 kts 101°
2026-05-05 03:10 20.62117 -100.18838 6287 ft 3 kts 101°
2026-05-05 03:10 20.62113 -100.18814 6287 ft 3 kts 101°
2026-05-05 03:10 20.62107 -100.18782 6287 ft 5 kts 101°
2026-05-05 03:11 20.62099 -100.18742 6288 ft 6 kts 101°
2026-05-05 03:11 20.62086 -100.18694 6288 ft 6 kts 128°
2026-05-05 03:11 20.62041 -100.18683 6288 ft 7 kts 188°
2026-05-05 03:11 20.61982 -100.18696 6288 ft 9 kts 193°
2026-05-05 03:12 20.61926 -100.18678 6288 ft 9 kts 117°
2026-05-05 03:12 20.61911 -100.18611 6289 ft 9 kts 102°
2026-05-05 03:12 20.61898 -100.18543 6290 ft 9 kts 100°
2026-05-05 03:12 20.61886 -100.18478 6291 ft 9 kts 101°
2026-05-05 03:13 20.61874 -100.18413 6291 ft 8 kts 100°
2026-05-05 03:13 20.61863 -100.18349 6292 ft 8 kts 101°
2026-05-05 03:13 20.61852 -100.18288 6293 ft 8 kts 101°
2026-05-05 03:13 20.61841 -100.18230 6294 ft 7 kts 102°
2026-05-05 03:14 20.61831 -100.18176 6295 ft 7 kts 100°
2026-05-05 03:14 20.61822 -100.18124 6295 ft 7 kts 101°
2026-05-05 03:14 20.61812 -100.18072 6296 ft 7 kts 102°
2026-05-05 03:14 20.61802 -100.18020 6297 ft 6 kts 100°
2026-05-05 03:15 20.61794 -100.17974 6298 ft 5 kts 100°
2026-05-05 03:15 20.61786 -100.17932 6299 ft 5 kts 101°
2026-05-05 03:15 20.61779 -100.17893 6300 ft 4 kts 101°
2026-05-05 03:15 20.61773 -100.17860 6301 ft 5 kts 101°
2026-05-05 03:16 20.61765 -100.17814 6301 ft 7 kts 101°
2026-05-05 03:16 20.61754 -100.17752 6302 ft 9 kts 102°
2026-05-05 03:16 20.61740 -100.17682 6304 ft 9 kts 101°
2026-05-05 03:16 20.61728 -100.17618 6306 ft 8 kts 101°
2026-05-05 03:17 20.61717 -100.17556 6307 ft 8 kts 101°
2026-05-05 03:17 20.61706 -100.17499 6309 ft 8 kts 101°
2026-05-05 03:17 20.61695 -100.17437 6310 ft 9 kts 101°
2026-05-05 03:17 20.61681 -100.17361 6312 ft 11 kts 101°
2026-05-05 03:18 20.61665 -100.17274 6313 ft 12 kts 101°
2026-05-05 03:18 20.61647 -100.17176 6315 ft 14 kts 101°
2026-05-05 03:18 20.61627 -100.17069 6317 ft 15 kts 101°
2026-05-05 03:18 20.61607 -100.16962 6318 ft 11 kts 100°
2026-05-05 03:19 20.61543 -100.16902 6319 ft 0 kts 189°
2026-05-05 03:20 20.61540 -100.16902 6319 ft 0 kts 189°
2026-05-05 03:20 20.61529 -100.16904 6319 ft 2 kts 189°
2026-05-05 03:20 20.61505 -100.16909 6319 ft 4 kts 191°
2026-05-05 03:20 20.61468 -100.16917 6318 ft 6 kts 191°
2026-05-05 03:21 20.61442 -100.16946 6318 ft 6 kts 263°
2026-05-05 03:21 20.61450 -100.17001 6318 ft 13 kts 283°
2026-05-05 03:21 20.61517 -100.17360 6312 ft 85 kts 282°
2026-05-05 03:21 20.61673 -100.18216 6295 ft 148 kts 283°
2026-05-05 03:22 20.61913 -100.19459 6423 ft 184 kts 281°
2026-05-05 03:22 20.62114 -100.20795 7027 ft 187 kts 276°
2026-05-05 03:22 20.62250 -100.22182 7722 ft 189 kts 275°
2026-05-05 03:22 20.62373 -100.23560 8280 ft 192 kts 275°
2026-05-05 03:23 20.62540 -100.25026 8550 ft 204 kts 276°
2026-05-05 03:23 20.62740 -100.26569 8804 ft 218 kts 277°
2026-05-05 03:23 20.62970 -100.28224 9058 ft 232 kts 281°
2026-05-05 03:23 20.63703 -100.29816 9148 ft 257 kts 316°
2026-05-05 03:24 20.65331 -100.30727 9415 ft 277 kts 349°
2026-05-05 03:24 20.67305 -100.30533 9694 ft 296 kts 19°
2026-05-05 03:24 20.69044 -100.29343 10140 ft 306 kts 45°
2026-05-05 03:24 20.70476 -100.27631 10786 ft 307 kts 47°
2026-05-05 03:25 20.71896 -100.25922 11379 ft 310 kts 47°
2026-05-05 03:25 20.73318 -100.24218 11956 ft 313 kts 47°
2026-05-05 03:25 20.74777 -100.22474 12533 ft 316 kts 47°
2026-05-05 03:25 20.76239 -100.20727 13127 ft 319 kts 46°
2026-05-05 03:26 20.77736 -100.18941 13750 ft 321 kts 46°
2026-05-05 03:26 20.79213 -100.17182 14421 ft 321 kts 47°
2026-05-05 03:26 20.80706 -100.15403 15097 ft 321 kts 47°
2026-05-05 03:26 20.82191 -100.13631 15777 ft 320 kts 48°
2026-05-05 03:27 20.83654 -100.11887 16434 ft 320 kts 48°
2026-05-05 03:27 20.85163 -100.10085 16786 ft 331 kts 49°
2026-05-05 03:27 20.86742 -100.08194 17068 ft 344 kts 49°
2026-05-05 03:27 20.88329 -100.06295 17572 ft 348 kts 49°
2026-05-05 03:28 20.89955 -100.04347 18153 ft 350 kts 49°
2026-05-05 03:28 20.91571 -100.02409 18661 ft 353 kts 49°
2026-05-05 03:28 20.93223 -100.00431 19147 ft 357 kts 49°
2026-05-05 03:28 20.94872 -99.98453 19616 ft 361 kts 49°
2026-05-05 03:29 20.96541 -99.96455 20103 ft 363 kts 49°
2026-05-05 03:29 20.98244 -99.94413 20575 ft 367 kts 49°
2026-05-05 03:29 20.99940 -99.92380 21025 ft 371 kts 49°
2026-05-05 03:29 21.01663 -99.90314 21497 ft 373 kts 49°
2026-05-05 03:30 21.03392 -99.88239 21923 ft 377 kts 49°
2026-05-05 03:30 21.05160 -99.86118 22373 ft 380 kts 49°
2026-05-05 03:30 21.06936 -99.83984 22861 ft 383 kts 48°
2026-05-05 03:30 21.08716 -99.81842 23332 ft 386 kts 48°
2026-05-05 03:31 21.10500 -99.79697 23820 ft 389 kts 48°
2026-05-05 03:31 21.12308 -99.77522 24287 ft 392 kts 48°
2026-05-05 03:31 21.14114 -99.75349 24738 ft 395 kts 47°
2026-05-05 03:31 21.15959 -99.73132 25189 ft 399 kts 47°
2026-05-05 03:32 21.17809 -99.70902 25640 ft 402 kts 47°
2026-05-05 03:32 21.19663 -99.68670 26081 ft 404 kts 47°
2026-05-05 03:32 21.21551 -99.66396 26521 ft 407 kts 46°
2026-05-05 03:32 21.23413 -99.64155 26943 ft 410 kts 46°
2026-05-05 03:33 21.25332 -99.61840 27369 ft 413 kts 46°
2026-05-05 03:33 21.27239 -99.59541 27773 ft 416 kts 46°
2026-05-05 03:33 21.29165 -99.57217 28156 ft 419 kts 46°
2026-05-05 03:33 21.31109 -99.54868 28523 ft 422 kts 46°
2026-05-05 03:34 21.33042 -99.52534 28884 ft 424 kts 46°
2026-05-05 03:34 21.35019 -99.50147 29238 ft 427 kts 46°
2026-05-05 03:34 21.36983 -99.47774 29572 ft 429 kts 46°
2026-05-05 03:34 21.38980 -99.45360 29895 ft 432 kts 46°
2026-05-05 03:35 21.40961 -99.42971 30201 ft 434 kts 45°
2026-05-05 03:35 21.43047 -99.40643 30502 ft 435 kts 42°
2026-05-05 03:35 21.45259 -99.38412 30801 ft 437 kts 40°
2026-05-05 03:35 21.47502 -99.36211 31084 ft 439 kts 40°
2026-05-05 03:36 21.49770 -99.33997 31346 ft 441 kts 40°
2026-05-05 03:36 21.52046 -99.31770 31602 ft 444 kts 40°
2026-05-05 03:36 21.54337 -99.29526 31852 ft 446 kts 40°
2026-05-05 03:36 21.56622 -99.27283 32093 ft 448 kts 40°
2026-05-05 03:37 21.58941 -99.25012 32331 ft 450 kts 40°
2026-05-05 03:37 21.61235 -99.22768 32563 ft 452 kts 40°
2026-05-05 03:37 21.63574 -99.20475 32789 ft 454 kts 40°
2026-05-05 03:37 21.65906 -99.18188 33049 ft 455 kts 40°
2026-05-05 03:38 21.68252 -99.15887 33398 ft 454 kts 40°
2026-05-05 03:38 21.70549 -99.13627 33784 ft 452 kts 40°
2026-05-05 03:38 21.72871 -99.11344 34167 ft 450 kts 40°
2026-05-05 03:38 21.75185 -99.09069 34532 ft 448 kts 40°
2026-05-05 03:39 21.77466 -99.06826 34861 ft 447 kts 40°
2026-05-05 03:39 21.79760 -99.04567 35177 ft 445 kts 40°
2026-05-05 03:39 21.82018 -99.02345 35509 ft 444 kts 40°
2026-05-05 03:39 21.84295 -99.00101 35809 ft 442 kts 39°
2026-05-05 03:40 21.86562 -98.97868 36075 ft 441 kts 40°
2026-05-05 03:40 21.88823 -98.95637 36336 ft 441 kts 39°
2026-05-05 03:40 21.91062 -98.93427 36584 ft 440 kts 39°
2026-05-05 03:40 21.93324 -98.91193 36824 ft 439 kts 39°
2026-05-05 03:41 21.95587 -98.88961 37069 ft 438 kts 39°
2026-05-05 03:41 21.97808 -98.86723 37279 ft 438 kts 41°
2026-05-05 03:41 21.99859 -98.84326 37461 ft 441 kts 46°
2026-05-05 03:41 22.01734 -98.81701 37655 ft 442 kts 52°
2026-05-05 03:42 22.03382 -98.78904 37844 ft 444 kts 57°
2026-05-05 03:42 22.04796 -98.75948 38008 ft 447 kts 62°
2026-05-05 03:42 22.05966 -98.72837 38185 ft 449 kts 67°
2026-05-05 03:42 22.06903 -98.69619 38361 ft 450 kts 70°
2026-05-05 03:43 22.07755 -98.66419 38528 ft 449 kts 70°
2026-05-05 03:43 22.08609 -98.63163 38688 ft 449 kts 70°
2026-05-05 03:43 22.09449 -98.59968 38846 ft 448 kts 70°
2026-05-05 03:43 22.10315 -98.56693 38906 ft 449 kts 70°
2026-05-05 03:44 22.12024 -98.50279 38910 ft 449 kts 70°
2026-05-05 03:44 22.13746 -98.43815 38913 ft 449 kts 70°
2026-05-05 03:45 22.15465 -98.37361 38915 ft 449 kts 70°
2026-05-05 03:45 22.17178 -98.30907 38916 ft 448 kts 70°
2026-05-05 03:46 22.18890 -98.24469 38916 ft 448 kts 70°
2026-05-05 03:46 22.20606 -98.17999 38916 ft 448 kts 70°
2026-05-05 03:47 22.22312 -98.11550 38918 ft 449 kts 70°
2026-05-05 03:47 22.24007 -98.05126 38918 ft 448 kts 70°
2026-05-05 03:48 22.25705 -97.98690 38919 ft 447 kts 70°
2026-05-05 03:48 22.27278 -97.92211 38920 ft 450 kts 75°
2026-05-05 03:49 22.28141 -97.85515 38921 ft 454 kts 82°
2026-05-05 03:49 22.28174 -97.78673 38924 ft 458 kts 90°
2026-05-05 03:50 22.27535 -97.71847 38922 ft 460 kts 93°
2026-05-05 03:50 22.26823 -97.65033 38921 ft 460 kts 93°
2026-05-05 03:51 22.26123 -97.58157 38918 ft 460 kts 92°
2026-05-05 03:51 22.25432 -97.51312 38916 ft 461 kts 92°
2026-05-05 03:52 22.24732 -97.44436 38917 ft 461 kts 92°
2026-05-05 03:52 22.24032 -97.37574 38921 ft 461 kts 92°
2026-05-05 03:53 22.23330 -97.30721 38924 ft 462 kts 93°
2026-05-05 03:53 22.22624 -97.23856 38923 ft 462 kts 92°
2026-05-05 03:54 22.21920 -97.17001 38925 ft 463 kts 93°
2026-05-05 03:54 22.21205 -97.10078 38923 ft 463 kts 93°
2026-05-05 03:55 22.20491 -97.03214 38925 ft 463 kts 93°
2026-05-05 03:55 22.19774 -96.96339 38927 ft 463 kts 93°
2026-05-05 03:56 22.19056 -96.89477 38924 ft 463 kts 93°
2026-05-05 03:56 22.18329 -96.82555 38919 ft 464 kts 92°
2026-05-05 03:57 22.17600 -96.75645 38919 ft 464 kts 92°
2026-05-05 03:57 22.16874 -96.68776 38916 ft 464 kts 93°
2026-05-05 03:58 22.16137 -96.61861 38917 ft 464 kts 92°
2026-05-05 03:58 22.15404 -96.54979 38914 ft 464 kts 92°
2026-05-05 03:59 22.14658 -96.48090 38912 ft 464 kts 92°
2026-05-05 03:59 22.13912 -96.41238 38915 ft 463 kts 92°
2026-05-05 04:00 22.13161 -96.34343 38912 ft 463 kts 93°
2026-05-05 04:00 22.12408 -96.27445 38914 ft 464 kts 93°
2026-05-05 04:01 22.11653 -96.20586 38914 ft 464 kts 93°
2026-05-05 04:01 22.10891 -96.13680 38914 ft 464 kts 93°
2026-05-05 04:02 22.10129 -96.06791 38915 ft 463 kts 93°
2026-05-05 04:02 22.09368 -95.99941 38911 ft 463 kts 92°
2026-05-05 04:03 22.08603 -95.93075 38911 ft 463 kts 93°
2026-05-05 04:03 22.07832 -95.86182 38910 ft 464 kts 93°
2026-05-05 04:04 22.07060 -95.79310 38910 ft 463 kts 92°
2026-05-05 04:04 22.06283 -95.72431 38914 ft 464 kts 93°
2026-05-05 04:05 22.05504 -95.65550 38910 ft 465 kts 92°
2026-05-05 04:05 22.04723 -95.58672 38911 ft 465 kts 92°
2026-05-05 04:06 22.03936 -95.51771 38911 ft 465 kts 92°
2026-05-05 04:06 22.03146 -95.44881 38911 ft 464 kts 92°
2026-05-05 04:07 22.02353 -95.37982 38912 ft 465 kts 92°
2026-05-05 04:07 22.01559 -95.31107 38912 ft 464 kts 92°
2026-05-05 04:08 22.00764 -95.24230 38912 ft 465 kts 92°
2026-05-05 04:08 21.99961 -95.17306 38911 ft 465 kts 92°
2026-05-05 04:09 21.99159 -95.10430 38911 ft 465 kts 92°
2026-05-05 04:09 21.98358 -95.03575 38911 ft 465 kts 92°
2026-05-05 04:10 21.97545 -94.96660 38915 ft 465 kts 92°
2026-05-05 04:10 21.96737 -94.89761 38916 ft 467 kts 92°
2026-05-05 04:11 21.95924 -94.82862 38914 ft 465 kts 92°
2026-05-05 04:11 21.95109 -94.75945 38916 ft 464 kts 92°
2026-05-05 04:12 21.94299 -94.69106 38925 ft 464 kts 92°
2026-05-05 04:12 21.93479 -94.62200 38933 ft 465 kts 92°
2026-05-05 04:13 21.92661 -94.55340 38932 ft 464 kts 92°
2026-05-05 04:13 21.91834 -94.48434 38933 ft 464 kts 92°
2026-05-05 04:14 21.91009 -94.41556 38935 ft 464 kts 92°
2026-05-05 04:14 21.90184 -94.34708 38932 ft 464 kts 93°
2026-05-05 04:15 21.89354 -94.27837 38934 ft 465 kts 93°
2026-05-05 04:15 21.88515 -94.20942 38934 ft 464 kts 93°
2026-05-05 04:16 21.87685 -94.14118 38931 ft 464 kts 93°
2026-05-05 04:16 21.86888 -94.07588 38933 ft 464 kts 93°
2026-05-05 04:17 21.86044 -94.00713 38935 ft 464 kts 93°
2026-05-05 04:17 21.85203 -93.93880 38934 ft 463 kts 93°
2026-05-05 04:18 21.84360 -93.87024 38934 ft 463 kts 93°
2026-05-05 04:18 21.83511 -93.80170 38934 ft 464 kts 93°
2026-05-05 04:19 21.82659 -93.73319 38936 ft 464 kts 93°
2026-05-05 04:19 21.81800 -93.66478 38938 ft 463 kts 93°
2026-05-05 04:20 21.80938 -93.59631 38942 ft 465 kts 93°
2026-05-05 04:20 21.80065 -93.52728 38938 ft 464 kts 93°
2026-05-05 04:21 21.79199 -93.45887 38936 ft 464 kts 93°
2026-05-05 04:21 21.78333 -93.39047 38940 ft 464 kts 94°
2026-05-05 04:22 21.77456 -93.32172 38927 ft 464 kts 94°
2026-05-05 04:22 21.76585 -93.25356 38927 ft 463 kts 94°
2026-05-05 04:23 21.75704 -93.18488 38938 ft 464 kts 94°
2026-05-05 04:23 21.74825 -93.11655 38937 ft 464 kts 94°
2026-05-05 04:24 21.73938 -93.04795 38941 ft 464 kts 94°
2026-05-05 04:25 21.72605 -92.94504 38943 ft 464 kts 94°
2026-05-05 04:25 21.71708 -92.87603 38940 ft 465 kts 94°
2026-05-05 04:26 21.70817 -92.80778 38942 ft 465 kts 94°
2026-05-05 04:26 21.69913 -92.73882 38942 ft 465 kts 94°
2026-05-05 04:27 21.69006 -92.67019 38943 ft 464 kts 94°
2026-05-05 04:27 21.68100 -92.60175 38945 ft 464 kts 94°
2026-05-05 04:28 21.67191 -92.53345 38947 ft 464 kts 94°
2026-05-05 04:28 21.66282 -92.46505 38945 ft 463 kts 94°
2026-05-05 04:29 21.65369 -92.39671 38944 ft 463 kts 94°
2026-05-05 04:29 21.64449 -92.32791 38941 ft 464 kts 94°
2026-05-05 04:30 21.63526 -92.25925 38943 ft 463 kts 94°
2026-05-05 04:30 21.62605 -92.19093 38942 ft 464 kts 94°
2026-05-05 04:31 21.61681 -92.12263 38943 ft 464 kts 94°
2026-05-05 04:31 21.60758 -92.05434 38943 ft 463 kts 94°
2026-05-05 04:32 21.59826 -91.98592 38943 ft 463 kts 94°
2026-05-05 04:32 21.58894 -91.91769 38937 ft 463 kts 94°
2026-05-05 04:33 21.57963 -91.84967 38937 ft 463 kts 94°
2026-05-05 04:33 21.57030 -91.78152 38937 ft 464 kts 95°
2026-05-05 04:34 21.56085 -91.71278 38938 ft 465 kts 94°
2026-05-05 04:34 21.55142 -91.64426 38938 ft 464 kts 95°
2026-05-05 04:35 21.54198 -91.57603 38936 ft 464 kts 95°
2026-05-05 04:35 21.53248 -91.50754 38938 ft 465 kts 95°
2026-05-05 04:36 21.52300 -91.43935 38938 ft 465 kts 95°
2026-05-05 04:36 21.51339 -91.37046 38940 ft 465 kts 95°
2026-05-05 04:37 21.50381 -91.30202 38941 ft 465 kts 95°
2026-05-05 04:37 21.49415 -91.23323 38941 ft 465 kts 95°
2026-05-05 04:38 21.48453 -91.16493 38941 ft 465 kts 95°
2026-05-05 04:38 21.47490 -91.09668 38943 ft 466 kts 95°
2026-05-05 04:39 21.46518 -91.02801 38940 ft 467 kts 96°
2026-05-05 04:39 21.45539 -90.95905 38939 ft 466 kts 96°
2026-05-05 04:40 21.44560 -90.89047 38941 ft 467 kts 96°
2026-05-05 04:40 21.43579 -90.82184 38942 ft 467 kts 95°
2026-05-05 04:41 21.42599 -90.75353 38943 ft 466 kts 95°
2026-05-05 04:41 21.41612 -90.68477 38943 ft 466 kts 95°
2026-05-05 04:42 21.40621 -90.61600 38943 ft 467 kts 95°
2026-05-05 04:42 21.39635 -90.54781 38943 ft 465 kts 95°
2026-05-05 04:43 21.38644 -90.47929 38945 ft 466 kts 95°
2026-05-05 04:43 21.37646 -90.41080 38944 ft 466 kts 95°
2026-05-05 04:44 21.36639 -90.34193 38947 ft 467 kts 96°
2026-05-05 04:44 21.35635 -90.27345 38946 ft 466 kts 96°
2026-05-05 04:45 21.34625 -90.20481 38950 ft 466 kts 96°
2026-05-05 04:45 21.33617 -90.13638 38951 ft 466 kts 96°
2026-05-05 04:46 21.32607 -90.06798 38950 ft 465 kts 96°
2026-05-05 04:46 21.31591 -89.99949 38951 ft 467 kts 96°
2026-05-05 04:47 21.30576 -89.93102 38953 ft 468 kts 96°
2026-05-05 04:47 21.29551 -89.86218 38953 ft 467 kts 96°
2026-05-05 04:48 21.28578 -89.79348 38949 ft 466 kts 91°
2026-05-05 04:49 21.30192 -89.65949 38953 ft 449 kts 64°
2026-05-05 04:49 21.32873 -89.59985 38954 ft 442 kts 56°
2026-05-05 04:50 21.35809 -89.54173 38955 ft 442 kts 56°
2026-05-05 04:50 21.38689 -89.48405 38954 ft 443 kts 56°
2026-05-05 04:51 21.41585 -89.42551 38954 ft 443 kts 56°
2026-05-05 04:51 21.44462 -89.36716 38953 ft 442 kts 57°
2026-05-05 04:52 21.47337 -89.30875 38955 ft 442 kts 57°
2026-05-05 04:52 21.50195 -89.25065 38956 ft 443 kts 57°
2026-05-05 04:53 21.53066 -89.19228 38957 ft 443 kts 57°
2026-05-05 04:53 21.55931 -89.13388 38960 ft 443 kts 57°
2026-05-05 04:54 21.58799 -89.07533 38968 ft 443 kts 56°
2026-05-05 04:54 21.61661 -89.01688 38966 ft 443 kts 56°
2026-05-05 04:54 21.63103 -88.98740 38681 ft 446 kts 56°
2026-05-05 04:55 21.64534 -88.95815 37955 ft 447 kts 57°
2026-05-05 04:55 21.65970 -88.92875 37339 ft 445 kts 57°
2026-05-05 04:55 21.67413 -88.89918 36756 ft 443 kts 57°
2026-05-05 04:55 21.68823 -88.87030 36131 ft 442 kts 57°
2026-05-05 04:56 21.70248 -88.84113 35489 ft 440 kts 57°
2026-05-05 04:56 21.71676 -88.81186 34865 ft 439 kts 57°
2026-05-05 04:56 21.73084 -88.78298 34249 ft 437 kts 57°
2026-05-05 04:56 21.74478 -88.75440 33613 ft 436 kts 57°
2026-05-05 04:57 21.75883 -88.72557 32979 ft 435 kts 57°
2026-05-05 04:57 21.77284 -88.69681 32381 ft 435 kts 57°
2026-05-05 04:57 21.78687 -88.66795 31727 ft 436 kts 57°
2026-05-05 04:57 21.80086 -88.63921 31026 ft 438 kts 57°
2026-05-05 04:58 21.81491 -88.61029 30401 ft 437 kts 57°
2026-05-05 04:58 21.82895 -88.58129 29936 ft 433 kts 57°
2026-05-05 04:58 21.84269 -88.55290 29456 ft 430 kts 57°
2026-05-05 04:58 21.85644 -88.52451 28997 ft 426 kts 57°
2026-05-05 04:59 21.86994 -88.49661 28547 ft 423 kts 57°
2026-05-05 04:59 21.88352 -88.46857 28092 ft 419 kts 57°
2026-05-05 04:59 21.89692 -88.44090 27659 ft 415 kts 57°
2026-05-05 04:59 21.91009 -88.41366 27216 ft 412 kts 57°
2026-05-05 05:00 21.92335 -88.38626 26780 ft 409 kts 57°
2026-05-05 05:00 21.93642 -88.35918 26352 ft 406 kts 57°
2026-05-05 05:00 21.94940 -88.33232 25929 ft 402 kts 58°
2026-05-05 05:00 21.96207 -88.30606 25499 ft 399 kts 58°
2026-05-05 05:01 21.97479 -88.27967 25061 ft 396 kts 58°
2026-05-05 05:01 21.98742 -88.25346 24619 ft 393 kts 58°
2026-05-05 05:01 22.00003 -88.22728 24189 ft 390 kts 58°
2026-05-05 05:01 22.01239 -88.20162 23741 ft 388 kts 58°
2026-05-05 05:02 22.02481 -88.17585 23305 ft 386 kts 58°
2026-05-05 05:02 22.03711 -88.15030 22889 ft 383 kts 58°
2026-05-05 05:02 22.04919 -88.12516 22476 ft 380 kts 58°
2026-05-05 05:02 22.06132 -88.09991 22033 ft 379 kts 58°
2026-05-05 05:03 22.07340 -88.07474 21602 ft 377 kts 58°
2026-05-05 05:03 22.08548 -88.04958 21133 ft 376 kts 58°
2026-05-05 05:03 22.09746 -88.02462 20692 ft 375 kts 58°
2026-05-05 05:03 22.10931 -87.99990 20321 ft 371 kts 58°
2026-05-05 05:04 22.11977 -87.97494 20074 ft 367 kts 71°
2026-05-05 05:04 22.12101 -87.94756 19967 ft 364 kts 99°
2026-05-05 05:04 22.11181 -87.92247 19603 ft 368 kts 124°
2026-05-05 05:04 22.09410 -87.90235 19098 ft 370 kts 139°
2026-05-05 05:05 22.07477 -87.88439 18641 ft 370 kts 139°
2026-05-05 05:05 22.05540 -87.86626 18194 ft 370 kts 139°
2026-05-05 05:05 22.03612 -87.84782 17766 ft 369 kts 138°
2026-05-05 05:05 22.01704 -87.82928 17336 ft 368 kts 138°
2026-05-05 05:06 21.99836 -87.81094 16945 ft 366 kts 138°
2026-05-05 05:06 21.97947 -87.79233 16508 ft 365 kts 138°
2026-05-05 05:06 21.96089 -87.77398 16193 ft 360 kts 138°
2026-05-05 05:06 21.94276 -87.75608 15885 ft 355 kts 138°
2026-05-05 05:07 21.92442 -87.73797 15386 ft 357 kts 138°
2026-05-05 05:07 21.90637 -87.72018 15053 ft 353 kts 138°
2026-05-05 05:07 21.88825 -87.70230 14587 ft 346 kts 138°
2026-05-05 05:07 21.87085 -87.68514 14099 ft 338 kts 138°
2026-05-05 05:08 21.85372 -87.66827 13671 ft 330 kts 138°
2026-05-05 05:08 21.83677 -87.65163 13275 ft 328 kts 138°
2026-05-05 05:08 21.82002 -87.63516 12891 ft 327 kts 138°
2026-05-05 05:08 21.80319 -87.61861 12516 ft 326 kts 138°
2026-05-05 05:09 21.78668 -87.60236 12164 ft 324 kts 138°
2026-05-05 05:09 21.76999 -87.58594 11817 ft 322 kts 138°
2026-05-05 05:09 21.75365 -87.56987 11469 ft 320 kts 138°
2026-05-05 05:09 21.73724 -87.55373 11105 ft 318 kts 138°
2026-05-05 05:10 21.72084 -87.53761 10738 ft 316 kts 138°
2026-05-05 05:10 21.70484 -87.52190 10380 ft 314 kts 138°
2026-05-05 05:10 21.68868 -87.50602 10008 ft 312 kts 138°
2026-05-05 05:10 21.67265 -87.49030 9652 ft 309 kts 138°
2026-05-05 05:11 21.65694 -87.47488 9302 ft 307 kts 138°
2026-05-05 05:11 21.64110 -87.45962 8949 ft 304 kts 140°
2026-05-05 05:11 21.62480 -87.44540 8604 ft 301 kts 141°
2026-05-05 05:11 21.60845 -87.43142 8271 ft 298 kts 141°
2026-05-05 05:12 21.59233 -87.41766 7931 ft 296 kts 141°
2026-05-05 05:12 21.57626 -87.40395 7599 ft 293 kts 141°
2026-05-05 05:12 21.56032 -87.39031 7256 ft 291 kts 141°
2026-05-05 05:12 21.54458 -87.37686 6919 ft 288 kts 141°
2026-05-05 05:13 21.52895 -87.36346 6585 ft 286 kts 141°
2026-05-05 05:13 21.51339 -87.35013 6247 ft 284 kts 141°
2026-05-05 05:13 21.49814 -87.33706 5918 ft 281 kts 141°
2026-05-05 05:13 21.48278 -87.32394 5592 ft 279 kts 141°
2026-05-05 05:14 21.46769 -87.31104 5268 ft 277 kts 141°
2026-05-05 05:14 21.45266 -87.29815 4950 ft 274 kts 141°
2026-05-05 05:14 21.43797 -87.28561 4664 ft 270 kts 141°
2026-05-05 05:14 21.42340 -87.27315 4432 ft 263 kts 141°
2026-05-05 05:15 21.40923 -87.26105 4235 ft 255 kts 141°
2026-05-05 05:15 21.39555 -87.24936 4072 ft 246 kts 140°
2026-05-05 05:15 21.38209 -87.23846 3978 ft 235 kts 146°
2026-05-05 05:15 21.36828 -87.22982 3972 ft 224 kts 151°
2026-05-05 05:16 21.35449 -87.22226 3975 ft 223 kts 152°
2026-05-05 05:16 21.34048 -87.21469 3975 ft 223 kts 152°
2026-05-05 05:16 21.32665 -87.20722 3974 ft 223 kts 152°
2026-05-05 05:16 21.31281 -87.19974 3975 ft 223 kts 152°
2026-05-05 05:17 21.29883 -87.19216 3976 ft 224 kts 152°
2026-05-05 05:17 21.28477 -87.18454 3953 ft 230 kts 152°
2026-05-05 05:17 21.27031 -87.17671 3907 ft 232 kts 152°
2026-05-05 05:17 21.25571 -87.16886 3595 ft 233 kts 152°
2026-05-05 05:18 21.24156 -87.16081 3299 ft 232 kts 146°
2026-05-05 05:18 21.22822 -87.15098 3032 ft 228 kts 140°
2026-05-05 05:18 21.21699 -87.13954 2970 ft 217 kts 130°
2026-05-05 05:18 21.20789 -87.12678 2972 ft 216 kts 124°
2026-05-05 05:19 21.19953 -87.11328 2972 ft 215 kts 123°
2026-05-05 05:19 21.19146 -87.09998 2969 ft 215 kts 123°
2026-05-05 05:19 21.18319 -87.08646 2975 ft 215 kts 123°
2026-05-05 05:19 21.17496 -87.07317 2978 ft 214 kts 123°
2026-05-05 05:20 21.16669 -87.05991 2977 ft 215 kts 124°
2026-05-05 05:20 21.15834 -87.04661 2975 ft 213 kts 124°
2026-05-05 05:20 21.15027 -87.03376 2962 ft 199 kts 124°
2026-05-05 05:20 21.14260 -87.02156 2926 ft 197 kts 123°
2026-05-05 05:21 21.13503 -87.00951 2722 ft 195 kts 123°
2026-05-05 05:21 21.12743 -86.99740 2468 ft 194 kts 123°
2026-05-05 05:21 21.11998 -86.98552 2221 ft 193 kts 123°
2026-05-05 05:21 21.11272 -86.97395 2056 ft 183 kts 123°
2026-05-05 05:22 21.10564 -86.96267 1786 ft 177 kts 123°
2026-05-05 05:22 21.09905 -86.95213 1545 ft 163 kts 124°
2026-05-05 05:22 21.09303 -86.94254 1330 ft 149 kts 123°
2026-05-05 05:22 21.08745 -86.93362 1115 ft 137 kts 124°
2026-05-05 05:23 21.08218 -86.92522 950 ft 135 kts 124°
2026-05-05 05:23 21.07697 -86.91692 798 ft 135 kts 123°
2026-05-05 05:23 21.07176 -86.90854 632 ft 134 kts 123°
2026-05-05 05:23 21.06662 -86.90022 446 ft 134 kts 123°
2026-05-05 05:24 21.06136 -86.89200 284 ft 133 kts 124°
2026-05-05 05:24 21.05617 -86.88375 111 ft 132 kts 123°
2026-05-05 05:24 21.05121 -86.87575 28 ft 121 kts 125°
2026-05-05 05:24 21.04744 -86.86976 28 ft 66 kts 122°
2026-05-05 05:25 21.04593 -86.86735 28 ft 20 kts 123°
2026-05-05 05:25 21.04515 -86.86611 28 ft 17 kts 124°
2026-05-05 05:25 21.04442 -86.86510 28 ft 16 kts 135°
2026-05-05 05:25 21.04359 -86.86430 28 ft 16 kts 144°
2026-05-05 05:26 21.04285 -86.86386 28 ft 10 kts 154°
2026-05-05 05:26 21.04218 -86.86351 28 ft 11 kts 153°
2026-05-05 05:26 21.04147 -86.86312 28 ft 10 kts 152°
2026-05-05 05:26 21.04092 -86.86269 28 ft 9 kts 124°
2026-05-05 05:27 21.04046 -86.86223 28 ft 9 kts 172°
2026-05-05 05:27 21.03996 -86.86243 33 ft 3 kts 216°
2026-05-05 05:27 21.03970 -86.86264 37 ft 6 kts 214°
2026-05-05 05:28 21.03929 -86.86292 43 ft 5 kts 213°
2026-05-05 05:28 21.03895 -86.86315 43 ft 6 kts 213°
2026-05-05 05:28 21.03849 -86.86348 38 ft 7 kts 213°
2026-05-05 05:28 21.03787 -86.86391 29 ft 14 kts 214°
2026-05-05 05:29 21.03724 -86.86437 28 ft 10 kts 214°
2026-05-05 05:29 21.03662 -86.86482 28 ft 10 kts 213°
2026-05-05 05:29 21.03599 -86.86526 28 ft 11 kts 214°
2026-05-05 05:29 21.03530 -86.86576 28 ft 12 kts 213°
2026-05-05 05:30 21.03457 -86.86628 28 ft 11 kts 213°
2026-05-05 05:30 21.03388 -86.86678 28 ft 12 kts 214°
2026-05-05 05:30 21.03326 -86.86723 28 ft 10 kts 214°
2026-05-05 05:30 21.03282 -86.86769 28 ft 8 kts 256°
2026-05-05 05:31 21.03304 -86.86825 28 ft 8 kts 306°
2026-05-05 05:31 21.03337 -86.86877 28 ft 8 kts 303°
2026-05-05 05:31 21.03370 -86.86930 28 ft 8 kts 303°
2026-05-05 05:31 21.03405 -86.86985 28 ft 9 kts 304°
2026-05-05 05:32 21.03442 -86.87044 28 ft 10 kts 303°
2026-05-05 05:32 21.03483 -86.87109 28 ft 10 kts 303°
2026-05-05 05:32 21.03526 -86.87179 28 ft 11 kts 303°
2026-05-05 05:32 21.03571 -86.87251 28 ft 11 kts 303°
2026-05-05 05:33 21.03617 -86.87323 28 ft 12 kts 304°
2026-05-05 05:33 21.03665 -86.87399 28 ft 12 kts 303°
2026-05-05 05:33 21.03712 -86.87459 28 ft 9 kts 331°
2026-05-05 05:33 21.03767 -86.87465 28 ft 7 kts
2026-05-05 05:34 21.03805 -86.87487 28 ft 2 kts 304°
2026-05-05 05:34 21.03819 -86.87508 28 ft 3 kts 308°
2026-05-05 05:34 21.03846 -86.87522 28 ft 4 kts 359°
2026-05-05 05:34 21.03878 -86.87509 28 ft 4 kts 29°
2026-05-05 05:35 21.03897 -86.87498 28 ft 2 kts 29°
2026-05-05 05:35 21.03907 -86.87492 28 ft 0 kts 28°
2026-05-05 05:35 21.03908 -86.87492 28 ft 0 kts 28°